{"data":{"norad_id":40878,"intl_designator":"2015-040A","name":"YAOGAN-27","alt_names":[],"object_type":"PAYLOAD","status":"ACTIVE","operator":null,"country":"PRC","launch_date":"2015-08-27","launch_site_code":"TAISC","launch_vehicle":null,"mission":null,"orbit_class":"UNKNOWN","rcs_meters":3.094,"size_class":null,"mass_kg":null,"dimensions":null,"purposes":["earth_obs"],"wikipedia_slug":null,"has_3d_model":false,"image_url":null,"decayed_at":null,"tle_current":{"epoch":"2026-05-25T05:20:07.238400Z","epoch_age_seconds":52947,"freshness":"FRESH","line1":"1 40878U 15040A   26145.22230600  .00000062  00000+0  27629-3 0  9996","line2":"2 40878 100.1152 132.6033 0007437 268.8382  91.1880 13.16069917514645","mean_motion":13.16069917,"eccentricity":0.0007437,"inclination_deg":100.1152,"raan_deg":132.6033,"arg_perigee_deg":268.8382,"mean_anomaly_deg":91.188,"bstar":0.00027629,"rev_number":51464,"period_min":109.41667926598,"perigee_km":1194.1330704454,"apogee_km":1205.4044474712,"semimajor_km":7577.9057589583,"source":"CELESTRAK","updated_at":"2026-05-25T13:38:12.789293Z"}}}